[TLELIST] Archives

 

[TLELIST] Current TLEs

August 30th 2023 PDT

HST 1 20580U 90037B 23241.47231183 .00004552 00000-0 23497-3 0 9999 2 20580 28.4688 140.1589 0002515 88.7514 82.6553 15.13870541632574 ISS (ZARYA) 1 25544U 98067A 23242.40853212 .00010338 00000-0 18838-3 0 9994 2 25544 51.6432 320.8583 0005038 14.4075 62.6383 15.50071852413302 CXO 1 25867U 99040B 23244.64313063 .00000839 00000-0 00000+0 0 9990 2 25867 37.3240 187.1513 9048633 270.3553 0.8228 0.37809184 24627 ...Continue Reading

[TLELIST] Current TLEs

August 29th 2023 PDT

HST 1 20580U 90037B 23240.48298569 .00004601 00000-0 23767-3 0 9995 2 20580 28.4684 146.7485 0002662 77.3686 91.5582 15.13861352632429 ISS (ZARYA) 1 25544U 98067A 23241.44302125 .00017179 00000-0 30765-3 0 9992 2 25544 51.6436 325.6400 0005150 8.9569 76.7682 15.50055501413152 CXO 1 25867U 99040B 23241.99984764 .00000966 00000-0 00000-0 0 9999 2 25867 37.3249 187.4441 9046266 270.1280 0.8751 0.37812485 13452 ...Continue Reading

[TLELIST] Current TLEs

August 28th 2023 PDT

HST 1 20580U 90037B 23240.14285800 .00004617 00000-0 23855-3 0 9997 2 20580 28.4684 149.0136 0002618 75.2951 36.2831 15.13858345632635 ISS (ZARYA) 1 25544U 98067A 23240.35394735 .00023120 00000-0 41144-3 0 9995 2 25544 51.6430 331.0361 0005040 6.2357 118.3039 15.50023151412982 CXO 1 25867U 99040B 23241.99984764 .00000966 00000-0 00000-0 0 9999 2 25867 37.3249 187.4441 9046266 270.1280 0.8751 0.37812485 13452 ...Continue Reading

[TLELIST] Current TLEs

August 27th 2023 PDT

HST 1 20580U 90037B 23238.23387192 .00004445 00000-0 22939-3 0 9992 2 20580 28.4681 161.7268 0002497 57.9642 69.2068 15.13841262632085 ISS (ZARYA) 1 25544U 98067A 23239.51086922 .00021306 00000-0 38048-3 0 9990 2 25544 51.6410 335.2118 0004933 3.1425 93.9005 15.49978993412856 CXO 1 25867U 99040B 23239.35534915 .00000981 00000-0 00000+0 0 9991 2 25867 37.3156 187.7541 9046490 269.8916 0.7443 0.37813281 24604 ...Continue Reading

[TLELIST] Current TLEs

August 27th 2023 PDT

HST 1 20580U 90037B 23238.23387192 .00004445 00000-0 22939-3 0 9992 2 20580 28.4681 161.7268 0002497 57.9642 69.2068 15.13841262632085 ISS (ZARYA) 1 25544U 98067A 23239.51086922 .00021306 00000-0 38048-3 0 9990 2 25544 51.6410 335.2118 0004933 3.1425 93.9005 15.49978993412856 CXO 1 25867U 99040B 23239.35534915 .00000981 00000-0 00000+0 0 9991 2 25867 37.3156 187.7541 9046490 269.8916 0.7443 0.37813281 24604 ...Continue Reading

[TLELIST] Current TLEs

August 26th 2023 PDT

HST 1 20580U 90037B 23237.24446558 .00004503 00000-0 23258-3 0 9994 2 20580 28.4680 168.3164 0002514 47.7814 76.5806 15.13833384631930 ISS (ZARYA) 1 25544U 98067A 23238.41839159 .00023187 00000-0 41390-3 0 9999 2 25544 51.6420 340.6273 0004902 358.4931 118.6717 15.49934024412686 CXO 1 25867U 99040B 23239.35534915 .00000981 00000-0 00000+0 0 9991 2 25867 37.3156 187.7541 9046490 269.8916 0.7443 0.37813281 24604 ...Continue Reading

[TLELIST] Current TLEs

August 25th 2023 PDT

HST 1 20580U 90037B 23237.17461168 .00004489 00000-0 23185-3 0 9992 2 20580 28.4681 168.7815 0002502 47.1755 55.7394 15.13832761632180 ISS (ZARYA) 1 25544U 98067A 23237.45176757 .00025716 00000-0 45909-3 0 9990 2 25544 51.6386 345.4158 0005081 351.4818 128.6540 15.49867380412537 CXO 1 25867U 99040B 23239.35534915 .00000981 00000-0 00000+0 0 9991 2 25867 37.3156 187.7541 9046490 269.8916 0.7443 0.37813281 24604 ...Continue Reading

[TLELIST] Current TLEs

August 24th 2023 PDT

HST 1 20580U 90037B 23235.26528289 .00004140 00000-0 21313-3 0 9993 2 20580 28.4680 181.4978 0002411 28.7266 88.0828 15.13816009631897 ISS (ZARYA) 1 25544U 98067A 23235.51284918 .00014007 00000-0 25659-3 0 9995 2 25544 51.6426 355.0105 0003727 342.0009 113.8232 15.49590945412235 CXO 1 25867U 99040B 23236.71223183 .00000930 00000-0 00000+0 0 9994 2 25867 37.3169 188.0447 9046831 269.6617 0.8056 0.37814564 24596 ...Continue Reading

[TLELIST] Current TLEs

August 24th 2023 PDT

HST 1 20580U 90037B 23235.26528289 .00004140 00000-0 21313-3 0 9993 2 20580 28.4680 181.4978 0002411 28.7266 88.0828 15.13816009631897 ISS (ZARYA) 1 25544U 98067A 23235.51284918 .00014007 00000-0 25659-3 0 9995 2 25544 51.6426 355.0105 0003727 342.0009 113.8232 15.49590945412235 CXO 1 25867U 99040B 23236.71223183 .00000930 00000-0 00000+0 0 9994 2 25867 37.3169 188.0447 9046831 269.6617 0.8056 0.37814564 24596 ...Continue Reading

[TLELIST] Current TLEs

August 24th 2023 PDT

HST 1 20580U 90037B 23235.26528289 .00004140 00000-0 21313-3 0 9993 2 20580 28.4680 181.4978 0002411 28.7266 88.0828 15.13816009631897 ISS (ZARYA) 1 25544U 98067A 23235.51284918 .00014007 00000-0 25659-3 0 9995 2 25544 51.6426 355.0105 0003727 342.0009 113.8232 15.49590945412235 CXO 1 25867U 99040B 23236.71223183 .00000930 00000-0 00000+0 0 9994 2 25867 37.3169 188.0447 9046831 269.6617 0.8056 0.37814564 24596 ...Continue Reading
  • This mailing list is a public mailing list - anyone may join or leave, at any time.
  • This mailing list is announce-only.

International Space Station (ISS) / Hubble Space Telescope (HST) / Chandra X-Ray Observatory Orbital Data via EMAIL

Privacy Policy:

Private list